This is the latest recevied weather packets stored in our database for station/object KQ4UPF. If no packets are shown the sender has not sent any weather packets the latest 10 day(s).
| Time | Temp. | Humidity | Pressure | Rain* | Wind** | Luminosity | Snow |
|---|---|---|---|---|---|---|---|
| 1777996688 | 23.89° C | 52% | 1015.3 hPa | 0 mm | - | 868 W/m² | - |
| 1777996383 | 23.89° C | 52% | 1015.3 hPa | 0 mm | - | 861 W/m² | - |
| 1777996080 | 23.89° C | 60% | 1015.4 hPa | 0 mm | - | 842 W/m² | - |
| 1777995777 | 23.33° C | 56% | 1015.3 hPa | 0 mm | - | 834 W/m² | - |
| 1777995473 | 23.33° C | 59% | 1015.5 hPa | 0 mm | - | 818 W/m² | - |
| 1777995170 | 23.33° C | 57% | 1015.4 hPa | 0 mm | - | 824 W/m² | - |
| 1777994868 | 23.33° C | 58% | 1015.2 hPa | 0 mm | - | 795 W/m² | - |
| 1777994564 | 23.33° C | 67% | 1015.3 hPa | 0 mm | - | 790 W/m² | - |
| 1777994264 | 23.33° C | 58% | 1015.2 hPa | 0 mm | - | 698 W/m² | - |
| 1777993962 | 23.33° C | 58% | 1015.5 hPa | 0 mm | - | 789 W/m² | - |
| 1777993659 | 23.89° C | 60% | 1015.6 hPa | 0 mm | - | 758 W/m² | - |
| 1777993356 | 23.33° C | 62% | 1015.3 hPa | 0 mm | - | 740 W/m² | - |
| 1777993056 | 22.78° C | 58% | 1015.5 hPa | 0 mm | - | 725 W/m² | - |
| 1777992754 | 22.78° C | 59% | 1015.4 hPa | 0 mm | - | 706 W/m² | - |
| 1777992452 | 22.78° C | 58% | 1015.4 hPa | 0 mm | - | 690 W/m² | - |
| 1777992150 | 23.33° C | 58% | 1015.5 hPa | 0 mm | - | 674 W/m² | - |
| 1777991847 | 22.78° C | 58% | 1015.5 hPa | 0 mm | - | 658 W/m² | - |
| 1777991544 | 22.22° C | 62% | 1015.8 hPa | 0 mm | - | 637 W/m² | - |
| 1777991240 | 21.67° C | 59% | 1015.7 hPa | 0 mm | - | 623 W/m² | - |
| 1777990938 | 21.67° C | 59% | 1015.7 hPa | 0 mm | - | 610 W/m² | - |
| 1777990636 | 21.67° C | 59% | 1015.6 hPa | 0 mm | - | 590 W/m² | - |
| 1777990333 | 21.67° C | 60% | 1015.5 hPa | 0 mm | - | 569 W/m² | - |
| 1777990028 | 21.67° C | 58% | 1015.7 hPa | 0 mm | - | 550 W/m² | - |
| 1777989726 | 21.11° C | 60% | 1016 hPa | 0 mm | - | 548 W/m² | - |
| 1777989422 | 21.11° C | 61% | 1015.5 hPa | 0 mm | - | 507 W/m² | - |
* Rain latest hour (hover to see other rain measurements)
** Current wind speed in m/s (hover to see current wind gust speed)